TimeCST,TemperatureF,Dew PointF,Humidity,Sea Level PressureIn,VisibilityMPH,Wind Direction,Wind SpeedMPH,Gust SpeedMPH,PrecipitationIn,Events,Conditions,WindDirDegrees,DateUTC
12:28 AM,57.2,57.2,100,30.04,10.0,NNE,8.1,-,N/A,,Overcast,20,2013-01-14 06:28:00
12:37 AM,57.2,55.4,94,30.04,10.0,NNE,9.2,-,N/A,,Overcast,30,2013-01-14 06:37:00
12:46 AM,57.2,55.4,94,30.04,10.0,North,6.9,-,N/A,,Overcast,10,2013-01-14 06:46:00
12:54 AM,57.2,55.4,94,30.05,10.0,NNE,8.1,-,N/A,Rain,Light Rain,20,2013-01-14 06:54:00
12:55 AM,57.0,55.8,96,30.05,10.0,NNE,8.1,-,0.00,Rain,Light Rain,20,2013-01-14 06:55:00
1:01 AM,57.2,55.4,94,30.05,9.0,NNE,4.6,-,N/A,Rain,Light Rain,20,2013-01-14 07:01:00
1:03 AM,57.2,55.4,94,30.05,9.0,NNE,5.8,-,N/A,Rain,Light Rain,20,2013-01-14 07:03:00
1:27 AM,57.2,55.4,94,30.06,8.0,North,4.6,-,N/A,Rain,Light Rain,360,2013-01-14 07:27:00
1:28 AM,57.2,55.4,94,30.06,7.0,Variable,4.6,-,N/A,Rain,Light Rain,0,2013-01-14 07:28:00
1:34 AM,57.2,55.4,94,30.05,6.0,North,5.8,-,N/A,Rain,Light Rain,10,2013-01-14 07:34:00
1:42 AM,55.4,55.4,100,30.06,9.0,Variable,4.6,-,N/A,Rain,Light Rain,0,2013-01-14 07:42:00
1:47 AM,55.4,55.4,100,30.06,10.0,NNE,8.1,-,N/A,Rain,Light Rain,30,2013-01-14 07:47:00
1:50 AM,55.4,55.4,100,30.06,10.0,NNE,9.2,-,N/A,,Overcast,30,2013-01-14 07:50:00
1:55 AM,56.1,55.0,96,30.05,10.0,NNE,10.4,-,0.03,,Overcast,30,2013-01-14 07:55:00
2:03 AM,55.4,55.4,100,30.05,10.0,NNE,10.4,-,N/A,,Overcast,30,2013-01-14 08:03:00
2:13 AM,55.4,55.4,100,30.06,10.0,NNE,6.9,-,N/A,,Overcast,20,2013-01-14 08:13:00
2:27 AM,55.4,55.4,100,30.06,10.0,Variable,6.9,-,N/A,,Overcast,0,2013-01-14 08:27:00
2:55 AM,55.6,54.1,95,30.06,10.0,Variable,6.9,-,N/A,,Overcast,0,2013-01-14 08:55:00
3:06 AM,55.4,53.6,94,30.06,10.0,Variable,5.8,-,N/A,,Overcast,0,2013-01-14 09:06:00
3:55 AM,54.1,52.9,95,30.06,10.0,Variable,4.6,-,N/A,,Overcast,0,2013-01-14 09:55:00
3:59 AM,53.6,53.6,100,30.05,10.0,NNE,8.1,-,N/A,,Overcast,20,2013-01-14 09:59:00
4:25 AM,53.6,51.8,94,30.05,10.0,NNE,11.5,16.1,N/A,,Light Drizzle,30,2013-01-14 10:25:00
4:35 AM,53.6,51.8,94,30.05,10.0,NNE,11.5,-,N/A,,Overcast,30,2013-01-14 10:35:00
4:55 AM,52.9,51.8,96,30.05,10.0,NNE,11.5,17.3,0.00,,Overcast,30,2013-01-14 10:55:00
5:08 AM,51.8,51.8,100,30.05,10.0,NNE,9.2,-,N/A,,Overcast,20,2013-01-14 11:08:00
5:28 AM,51.8,50.0,94,30.06,10.0,NNE,11.5,-,N/A,,Overcast,30,2013-01-14 11:28:00
5:39 AM,51.8,50.0,94,30.07,10.0,NNE,8.1,-,N/A,,Overcast,20,2013-01-14 11:39:00
5:55 AM,51.4,50.4,96,30.07,10.0,NNE,10.4,-,N/A,,Overcast,30,2013-01-14 11:55:00
6:25 AM,50.0,50.0,100,30.08,7.0,NNE,11.5,-,N/A,,Overcast,30,2013-01-14 12:25:00
6:31 AM,50.0,50.0,100,30.08,8.0,NE,13.8,-,N/A,,Overcast,50,2013-01-14 12:31:00
6:39 AM,50.0,50.0,100,30.09,10.0,NE,12.7,-,N/A,,Overcast,40,2013-01-14 12:39:00
6:45 AM,50.0,50.0,100,30.09,9.0,NNE,10.4,-,N/A,,Overcast,30,2013-01-14 12:45:00
6:47 AM,50.0,50.0,100,30.09,9.0,NE,9.2,-,N/A,,Overcast,40,2013-01-14 12:47:00
6:50 AM,50.0,50.0,100,30.09,8.0,NNE,11.5,18.4,N/A,,Overcast,30,2013-01-14 12:50:00
6:55 AM,50.5,49.6,97,30.09,6.0,NNE,10.4,18.4,N/A,,Overcast,30,2013-01-14 12:55:00
7:55 AM,50.2,49.3,97,30.10,10.0,NE,10.4,-,N/A,,Overcast,40,2013-01-14 13:55:00
8:26 AM,50.0,48.2,94,30.11,10.0,NE,12.7,-,N/A,,Overcast,40,2013-01-14 14:26:00
8:48 AM,50.0,48.2,94,30.12,5.0,NNE,10.4,-,N/A,,Overcast,30,2013-01-14 14:48:00
8:55 AM,50.0,49.1,97,30.12,5.0,NNE,10.4,-,N/A,,Overcast,30,2013-01-14 14:55:00
8:56 AM,50.0,50.0,100,30.12,5.0,NE,10.4,-,N/A,,Overcast,40,2013-01-14 14:56:00
9:55 AM,51.3,50.5,97,30.12,4.0,NE,8.1,-,N/A,,Overcast,40,2013-01-14 15:55:00
10:50 AM,51.8,51.8,100,30.10,2.5,NNE,8.1,-,N/A,,Overcast,30,2013-01-14 16:50:00
10:55 AM,52.3,51.8,98,30.09,2.5,NNE,8.1,-,N/A,,Overcast,30,2013-01-14 16:55:00
10:59 AM,51.8,51.8,100,30.09,3.0,NNE,8.1,-,N/A,,Overcast,30,2013-01-14 16:59:00
11:32 AM,53.6,51.8,94,30.08,2.5,NNE,8.1,-,N/A,,Overcast,20,2013-01-14 17:32:00
11:38 AM,53.6,51.8,94,30.08,2.0,North,8.1,-,N/A,,Overcast,10,2013-01-14 17:38:00
11:42 AM,51.8,51.8,100,30.07,2.0,North,8.1,-,N/A,,Overcast,10,2013-01-14 17:42:00
11:51 AM,53.6,51.8,94,30.07,1.8,NNE,8.1,-,N/A,,Overcast,20,2013-01-14 17:51:00
11:55 AM,52.9,52.3,98,30.07,1.8,NNE,6.9,-,N/A,,Overcast,30,2013-01-14 17:55:00
12:12 PM,53.6,53.6,100,30.06,1.5,NE,8.1,-,N/A,,Overcast,50,2013-01-14 18:12:00
12:21 PM,53.6,53.6,100,30.05,1.8,NE,6.9,-,N/A,,Overcast,40,2013-01-14 18:21:00
12:23 PM,53.6,53.6,100,30.05,2.0,NE,5.8,-,N/A,,Overcast,50,2013-01-14 18:23:00
12:29 PM,53.6,53.6,100,30.04,2.5,NE,6.9,-,N/A,,Overcast,50,2013-01-14 18:29:00
12:36 PM,55.4,53.6,94,30.04,2.5,NE,5.8,-,N/A,,Overcast,40,2013-01-14 18:36:00
12:37 PM,55.4,53.6,94,30.04,3.0,NNE,5.8,-,N/A,,Overcast,30,2013-01-14 18:37:00
12:55 PM,55.4,54.7,97,30.04,7.0,NNE,6.9,-,N/A,,Overcast,20,2013-01-14 18:55:00
1:04 PM,55.4,55.4,100,30.03,2.5,NNE,6.9,-,N/A,,Overcast,30,2013-01-14 19:04:00
1:55 PM,56.3,55.2,96,30.05,7.0,North,5.8,-,N/A,,Overcast,360,2013-01-14 19:55:00
2:17 PM,57.2,55.4,94,30.06,1.0,North,9.2,-,N/A,,Overcast,350,2013-01-14 20:17:00
2:18 PM,57.2,55.4,94,30.06,2.5,North,9.2,-,N/A,,Overcast,350,2013-01-14 20:18:00
2:23 PM,57.2,55.4,94,30.06,1.0,North,9.2,-,N/A,,Overcast,350,2013-01-14 20:23:00
2:32 PM,55.4,55.4,100,30.06,2.5,North,9.2,-,N/A,,Overcast,360,2013-01-14 20:32:00
2:46 PM,55.4,55.4,100,30.06,1.0,North,8.1,-,N/A,,Overcast,360,2013-01-14 20:46:00
2:57 PM,55.4,55.4,100,30.06,1.0,North,9.2,-,N/A,,Overcast,10,2013-01-14 20:57:00
3:56 PM,55.4,53.6,94,30.07,1.0,NNE,11.5,-,N/A,,Overcast,20,2013-01-14 21:56:00
4:49 PM,53.6,51.8,94,30.10,2.0,North,12.7,-,N/A,,Overcast,360,2013-01-14 22:49:00
4:57 PM,51.8,51.8,100,30.10,3.0,North,13.8,-,N/A,,Overcast,360,2013-01-14 22:57:00
5:55 PM,50.0,50.0,100,30.12,3.0,NNE,10.4,-,N/A,,Overcast,20,2013-01-14 23:55:00
6:58 PM,48.2,46.4,93,30.12,3.0,NNE,13.8,21.9,N/A,,Overcast,20,2013-01-15 00:58:00
7:55 PM,46.4,46.4,100,30.10,2.5,NNE,13.8,20.7,N/A,,Overcast,20,2013-01-15 01:55:00
8:45 PM,46.4,44.6,93,30.11,3.0,NNE,12.7,20.7,N/A,Rain,Light Rain,20,2013-01-15 02:45:00
8:55 PM,46.4,44.6,93,30.10,3.0,NNE,13.8,-,N/A,,Overcast,20,2013-01-15 02:55:00
9:13 PM,46.4,44.6,93,30.09,10.0,NNE,11.5,-,N/A,Rain,Light Rain,30,2013-01-15 03:13:00
9:17 PM,44.6,44.6,100,30.09,10.0,NNE,10.4,-,N/A,,Overcast,20,2013-01-15 03:17:00
9:34 PM,44.6,44.6,100,30.10,8.0,NNE,13.8,-,N/A,,Overcast,20,2013-01-15 03:34:00
9:52 PM,44.6,42.8,93,30.09,8.0,NNE,15.0,19.6,N/A,,Overcast,20,2013-01-15 03:52:00
9:55 PM,44.4,43.7,97,30.09,8.0,NNE,13.8,19.6,0.00,,Overcast,20,2013-01-15 03:55:00
10:08 PM,44.6,42.8,93,30.09,5.0,NNE,13.8,-,N/A,,Overcast,20,2013-01-15 04:08:00
10:12 PM,44.6,42.8,93,30.09,5.0,NNE,13.8,-,N/A,,Overcast,30,2013-01-15 04:12:00
10:21 PM,44.6,42.8,93,30.09,5.0,North,10.4,-,N/A,Rain,Light Rain,10,2013-01-15 04:21:00
10:26 PM,44.6,42.8,93,30.10,7.0,North,13.8,-,N/A,,Overcast,10,2013-01-15 04:26:00
10:36 PM,42.8,42.8,100,30.10,7.0,NNE,10.4,-,N/A,Rain,Light Rain,20,2013-01-15 04:36:00
10:43 PM,42.8,42.8,100,30.09,3.0,NNE,11.5,-,N/A,Rain,Heavy Rain,30,2013-01-15 04:43:00
10:46 PM,42.8,42.8,100,30.09,3.0,NNE,11.5,-,N/A,Rain,Light Rain,20,2013-01-15 04:46:00
10:47 PM,42.8,42.8,100,30.09,3.0,NNE,10.4,-,N/A,Rain,Light Rain,20,2013-01-15 04:47:00
10:48 PM,42.8,42.8,100,30.09,4.0,NNE,9.2,-,N/A,Rain,Light Rain,20,2013-01-15 04:48:00
10:55 PM,43.3,42.4,97,30.09,10.0,NNE,10.4,-,0.07,Rain,Light Rain,20,2013-01-15 04:55:00
11:02 PM,42.8,42.8,100,30.09,10.0,NNE,10.4,-,N/A,Rain,Light Rain,30,2013-01-15 05:02:00
11:06 PM,42.8,42.8,100,30.09,10.0,NNE,11.5,-,N/A,,Overcast,30,2013-01-15 05:06:00
11:15 PM,42.8,42.8,100,30.09,10.0,NNE,10.4,-,N/A,,Overcast,20,2013-01-15 05:15:00
11:17 PM,42.8,42.8,100,30.09,10.0,NNE,9.2,-,N/A,,Overcast,20,2013-01-15 05:17:00
11:27 PM,42.8,42.8,100,30.10,10.0,North,12.7,-,N/A,,Overcast,10,2013-01-15 05:27:00
11:48 PM,42.8,42.8,100,30.09,10.0,North,10.4,-,N/A,,Overcast,10,2013-01-15 05:48:00
11:55 PM,43.7,42.6,96,30.09,10.0,North,10.4,-,0.00,,Overcast,10,2013-01-15 05:55:00
11:58 PM,42.8,42.8,100,30.09,10.0,North,10.4,-,N/A,,Overcast,10,2013-01-15 05:58:00